TimePDT,TemperatureF,Dew PointF,Humidity,Sea Level PressureIn,VisibilityMPH,Wind Direction,Wind SpeedMPH,Gust SpeedMPH,PrecipitationIn,Events,Conditions,WindDirDegrees,DateUTC
12:53 AM,42.1,35.1,76,29.97,10.0,West,5.8,-,N/A,,Clear,260,2013-05-25 07:53:00
1:53 AM,36.0,33.1,89,29.98,10.0,Calm,Calm,-,N/A,,Clear,0,2013-05-25 08:53:00
2:53 AM,34.0,32.0,92,29.99,10.0,Calm,Calm,-,N/A,,Clear,0,2013-05-25 09:53:00
3:53 AM,33.1,30.9,92,29.99,10.0,Calm,Calm,-,N/A,,Clear,0,2013-05-25 10:53:00
4:53 AM,30.0,28.0,92,29.99,10.0,Calm,Calm,-,N/A,,Clear,0,2013-05-25 11:53:00
5:15 AM,30.2,28.4,93,30.02,1.8,Calm,Calm,-,N/A,,Clear,0,2013-05-25 12:15:00
5:19 AM,30.2,28.4,93,30.02,3.0,East,4.6,-,N/A,,Clear,100,2013-05-25 12:19:00
5:32 AM,30.2,28.4,93,30.02,1.8,Calm,Calm,-,N/A,,Clear,0,2013-05-25 12:32:00
5:41 AM,30.2,28.4,93,30.02,3.0,Calm,Calm,-,N/A,,Clear,0,2013-05-25 12:41:00
5:53 AM,30.0,28.9,96,30.01,10.0,Calm,Calm,-,N/A,,Clear,0,2013-05-25 12:53:00
6:53 AM,35.1,33.1,92,30.01,10.0,Calm,Calm,-,N/A,,Clear,0,2013-05-25 13:53:00
7:53 AM,42.1,34.0,73,30.01,10.0,Calm,Calm,-,N/A,,Clear,0,2013-05-25 14:53:00
8:53 AM,46.0,32.0,58,30.00,10.0,Calm,Calm,-,N/A,,Clear,0,2013-05-25 15:53:00
9:53 AM,50.0,28.9,44,29.98,10.0,SSW,3.5,-,N/A,,Clear,200,2013-05-25 16:53:00
10:53 AM,53.1,30.0,41,29.97,10.0,Variable,5.8,-,N/A,,Clear,0,2013-05-25 17:53:00
11:53 AM,57.0,27.0,32,29.96,10.0,Calm,Calm,-,N/A,,Clear,0,2013-05-25 18:53:00
12:53 PM,59.0,27.0,29,29.95,10.0,Variable,5.8,-,N/A,,Clear,0,2013-05-25 19:53:00
1:53 PM,63.0,27.0,26,29.94,10.0,SSW,10.4,-,N/A,,Partly Cloudy,210,2013-05-25 20:53:00
2:53 PM,64.0,19.9,18,29.92,10.0,SSW,4.6,17.3,N/A,,Clear,210,2013-05-25 21:53:00
3:53 PM,66.0,19.9,17,29.91,10.0,West,16.1,23.0,N/A,,Clear,280,2013-05-25 22:53:00
4:53 PM,66.0,21.0,18,29.90,10.0,West,16.1,20.7,N/A,,Clear,280,2013-05-25 23:53:00
5:53 PM,64.0,28.9,27,29.90,10.0,NNW,11.5,17.3,N/A,,Mostly Cloudy,330,2013-05-26 00:53:00
6:53 PM,57.0,37.9,49,29.93,7.0,Variable,6.9,23.0,N/A,Rain,Light Rain,0,2013-05-26 01:53:00
7:53 PM,55.9,37.9,51,29.92,7.0,Calm,Calm,-,0.03,Rain,Light Rain,0,2013-05-26 02:53:00
8:53 PM,53.1,43.0,69,29.91,10.0,WSW,5.8,-,0.02,,Overcast,250,2013-05-26 03:53:00
9:53 PM,50.0,41.0,71,29.95,10.0,West,9.2,-,0.04,Rain,Light Rain,280,2013-05-26 04:53:00
10:53 PM,48.0,43.0,83,29.94,10.0,NW,4.6,-,0.01,,Overcast,310,2013-05-26 05:53:00
11:53 PM,48.9,42.1,77,29.94,10.0,Calm,Calm,-,N/A,,Overcast,0,2013-05-26 06:53:00